Hourly Data Report for September 04, 2017

All times are specified in Local Standard Time (LST). Add 1 hour to adjust for Daylight Saving Time where and when it is observed.

ST. STEPHEN
NEW BRUNSWICK

45°12'36.600" N
67°15'10.300" W
26.10 m
8104935
71607
WSS

Download Data

Hourly Data (September 2017)
Hourly Data Report for September 4, 2017
Temp Definition
°C
Dew Point Temp Definition
°C
Rel Hum Definition
%
Wind Dir Definition
10's deg

Wind Spd Definition
km/h
Visibility Definition
km
Stn Press Definition
kPa
Hmdx Definition


Wind Chill Definition


Weather Definition


TIME
00:00 12.8 12.0 95 9 14   100.23     LegendNANA
01:00 13.1 12.4 96 9 16   100.03     LegendNANA
02:00 13.7 13.0 96 10 12   99.86     LegendNANA
03:00 14.0 13.4 96 11 9   99.73     LegendNANA
04:00 13.5 12.6 95 17 17   99.66     LegendNANA
05:00 13.2 12.5 95 18 4   99.63     LegendNANA
06:00 13.7 13.1 96 24 11   99.71     LegendNANA
07:00 13.1 12.0 93 26 17   99.92     LegendNANA
08:00 13.6 11.9 89 25 18   100.06     LegendNANA
09:00 14.5 11.9 84 25 18   100.14     LegendNANA
10:00 15.4 12.2 81 25 12   100.25     LegendNANA
11:00 17.0 12.4 74 26 19   100.28     LegendNANA
12:00 18.1 12.0 68 26 17   100.33     LegendNANA
13:00 19.6 11.1 58 25 23   100.35     LegendNANA
14:00 18.9 11.6 62 25 15   100.37     LegendNANA
15:00 21.1 11.1 53 27 13   100.35     LegendNANA
16:00 22.1 10.4 47 25 16   100.33     LegendNANA
17:00 22.8 11.2 48 22 10   100.37 25   LegendNANA
18:00 22.5 11.4 49 22 9   100.39     LegendNANA
19:00 19.4 13.2 67 18 12   100.46     LegendNANA
20:00 18.4 12.4 68 21 9   100.54     LegendNANA
21:00 17.6 12.4 72 20 10   100.57     LegendNANA
22:00 16.9 12.4 75 20 3   100.54     LegendNANA
23:00 17.2 12.7 75 20 6   100.52     LegendNANA

Notes on Data Quality.

Legend

  • E = Estimated
  • M = Missing
  • NA = Not Available
  • ‡ = Partner data that is not subject to review by the National Climate Archives
Date modified: